Regional Weather Roundup
Issued by NWS San Diego, CA

Home | Current Version | Previous Version | Text Only | Print | Product List | Glossary On
Versions: 1 2 3 4 5 6 7 8 9 10 11 12 13 14 15 16 17 18 19 20 21 22 23 24 25 26 27 28 29 30 31 32 33 34 35 36 37 38 39 40 41 42 43 44 45 46 47 48 49 50
000
ASUS46 KSGX 270711
RWRSGX

SAN DIEGO HOURLY WEATHER ROUNDUP
NATIONAL WEATHER SERVICE SAN DIEGO CA
1200 AM PDT THU APR 27 2017

NOTE: "FAIR" INDICATES FEW OR NO CLOUDS BELOW 12,000 FEET WITH NO
SIGNIFICANT WEATHER AND/OR OBSTRUCTIONS TO VISIBILITY.

CAZ042-043-060-061-PZZ750-775-270800-

GREATER SAN DIEGO AREA

CITY           SKY/WX    TMP DP  RH WIND       PRES   REMARKS
SAN DIEGO AP   PTCLDY    64  57  78 S3        29.89R
NATIONAL CITY    N/A     62  58  85 CALM      29.88R
CHULA VISTA      N/A     61  59  92 CALM      29.81R
IMPERIAL BEACH PTCLDY    63  57  81 S3        29.89R
BROWN FIELD    CLEAR     58  56  93 CALM      29.88R
MIRAMAR MCAS   PTCLDY    60  52  74 S5        29.86F
MONTGOMERY FLD PTCLDY    61  53  75 SE5       29.87F

$$

NORTH SAN DIEGO COUNTY

CITY           SKY/WX    TMP DP  RH WIND       PRES   REMARKS
CAMP PENDLETON MOCLDY    59  56  89 NE6       29.87S
OCEANSIDE AP   MOCLDY    61  57  87 NE5       29.85F
OCEANSIDE HBR    N/A     63  60  90 SE2       29.88S
VISTA            N/A     58  53  84 CALM      29.85S
CARLSBAD       CLOUDY    62  58  86 SE5       29.86R
DEL MAR          N/A     59  57  91 CALM      29.88F
LA JOLLA SCRIP   N/A     61  58  91 E3        29.86S
FALLBROOK        N/A     58  57  99 CALM      29.85S
ESCONDIDO        N/A     61  55  80 CALM      29.88R
SAN MARCOS       N/A     60  52  77 CALM      29.87F
POWAY            N/A     58  52  80 CALM      29.87F

$$

EAST SAN DIEGO COUNTY

CITY           SKY/WX    TMP DP  RH WIND       PRES   REMARKS
RAMONA         PTCLDY    54  51  90 E3        29.88S
SANTEE LAKES     N/A     58  53  84 CALM      29.86S
LA MESA          N/A     58  56  91 CALM      29.81R
JAMUL            N/A     56  52  87 CALM      29.87S
DESCANSO N       N/A     51  44  77 CALM      29.81R
MT. LAGUNA OBS   N/A     49  43  78 W6        29.58R
CAMPO            N/A     49  43  80 NE5       29.87S

$$

ORANGE COUNTY AND THE LOS ANGELES BASIN

CITY           SKY/WX    TMP DP  RH WIND       PRES   REMARKS
JOHN WAYNE AP  MOCLDY    63  58  83 SW6       29.85S
LAGUNA BEACH     N/A    N/A N/A N/A N3        29.81R
LAKE FOREST FR   N/A     58  51  78 CALM      29.74S
HUNTINGTON BCH   N/A     61  59  92 SW1       29.86S
LOS ALAMITOS   LGT RAIN  61  57  88 S10       29.84S
FULLERTON      MOCLDY    62  57  83 S6        29.84S
LONG BEACH     MOCLDY    61  55  81 S6        29.84S
L.A. AP        MOCLDY    59  55  87 SE6       29.83F
L.A. DOWNTOWN  MOCLDY    63  55  75 CALM      29.83F

$$

THE INLAND EMPIRE

CITY           SKY/WX    TMP DP  RH WIND       PRES   REMARKS
CORONA         MOCLDY    60  54  80 W6        29.85S
CHINO          MOCLDY    62  54  74 SW3       29.86R
ONTARIO        MOCLDY    61  53  75 W6        29.85R
SAN BERNARDINO FAIR      65  51  60 CALM      29.85S
RIVERSIDE AP   MOCLDY    62  53  72 NW3       29.85R
MORENO VALLEY    N/A     59  52  77 CALM      27.98S
MARCH ARB      MOCLDY    58  48  69 S8        29.86S
HORSETHIEF CYN   N/A     60  45  57 CALM      29.85R
PERRIS           N/A     58  53  81 S6        29.86R
HEMET EAST       N/A     59  46  61 CALM      29.89S
FRENCH VALLEY  FAIR      59  52  77 S5        29.87S
TEMECULA         N/A     60  54  79 CALM      29.92F

$$

SAN BERNARDINO AND RIVERSIDE COUNTY MOUNTAINS

CITY           SKY/WX    TMP DP  RH WIND       PRES   REMARKS
BIG BEAR AP    PTCLDY    52  21  30 W21G29    30.00F
PINE COVE        N/A     52  40  63 NW3       29.75F

$$

SOUTHERN DESERT INCLUDING THE COACHELLA VALLEY

CITY           SKY/WX    TMP DP  RH WIND       PRES   REMARKS
PALM SPRINGS   MOCLDY    75  48  38 S5        29.67F
PALM DESERT      N/A     76  50  40 N2          N/A
THERMAL        MOCLDY    79  47  32 N13       29.64R
BLYTHE         MOCLDY    77  39  25 S8        29.67R
IMPERIAL AP    PTCLDY    76  48  37 W13       29.65S
EL CENTRO NAS  PTCLDY    77  44  30 SW14      29.68S
YUMA AZ        PTCLDY    75  39  27 SW7       29.68
MEXICALI       PTCLDY    68  54  60 SE5       29.67F

$$

UPPER DESERT

CITY           SKY/WX    TMP DP  RH WIND       PRES   REMARKS
VICTORVILLE AP PTCLDY    63  45  51 W26G36    29.85R
HESPERIA         N/A     65  44  47 N5        29.93S
PALMDALE       MOCLDY    65  47  52 W22G29    29.91R
LANCASTER      MOCLDY    64  48  56 SW17G46   29.90R
EDWARDS AFB    MOCLDY    64  47  52 W24G35    29.84R
DAGGETT        PTCLDY    68  47  46 W30G44    29.75F
29 PALMS N     MOCLDY    73  38  27 NW26G39   29.77F
NEEDLES        PTCLDY    80  44  27 SW6       29.64S

$$

REGIONAL REPORTS

CITY           SKY/WX    TMP DP  RH WIND       PRES   REMARKS
SANTA BARBARA  CLEAR     60  55  83 NE6       29.85F
SANDBERG       CLOUDY    53  51  93 N21G35    29.99F FOG
LAS VEGAS NV   MOCLDY    75  41  29 SW10      29.65R
PHOENIX AZ     PTCLDY    79  33  19 W12       29.67S
TIJUANA        PTCLDY    59  54  82 N7        29.90R
ENSENADA NW      N/A     60  32  34 CALM      29.85F

$$

OFFSHORE ISLANDS

CITY           SKY/WX    TMP DP  RH WIND       PRES   REMARKS
CATALINA ARPT  PTCLDY    61  54  77 NW13      29.89S
SAN NICOLAS IS CLOUDY    53  32  44 W32G44    29.89S

$$

MARINE AND OFFSHORE BUOY REPORTS

STATION/POSITION SKY/WX   TEMP    WIND        PRES    VSBY  SWELL
                          AIR SEA DIR/SP/G                  HT/PER/DIR
                          (F)     (DEG/KT/KT) (MB)    (MI)  (FT/S/D)
TANNER BANKS               57 57  310/ 27/ 35 1012.7R         3/260/16
S CLEMENTE BASIN           60 62  300/ 17/ 21 1011.2R         7/300/ 9
SAN NICOLAS IS.               54                N/A           3/190/15
SO. S. ROSA ISLA           54 53  300/ 27/ 33 1012.6F         3/270/16
W. S. BARBARA CH           53 50  330/ 21/ 27 1013.7F         3/180/16
M. S. BARBARA CH                                N/A           2/250/10
S. MONICA BASIN            62 62  310/ 10/ 16 1010.1F         7/260/ 8
S PEDRO CHANNEL               60                N/A           2/160/15
CMP PENDLETON NS              64                N/A           3/210/15
OCEANSIDE OFFSHR              64                N/A           3/190/15
TORREY PINES OTR              64                N/A           2/200/15
POINT LOMA SOUTH              63                N/A           3/180/15

$$




USA.gov is the U.S. government's official web portal to all federal, state and local government web resources and services.